Погода в Спрингфилде

США     42°06′07″N   72°35′24″W
темп.,
°C
ветер,
м/с
пор.,
м/с
влажн.,
%
обл.,
%
осадки,
мм/ч
давл.,
гПа
погр.,
м
19 апреля, пн
пн1923:00+6юз118447 0.0 101110
02:00+5зсз008995 0.0 101110
05:00+5з0085100 0.0 101110
08:00+8зсз01725 0.0 1012123
11:00+15зюз23455 0.0 10111306
14:00+16з244193 0.0 10091709
17:00+13зсз4766100 0.2 1009548
20:00+9юв239499 4.7 1010146
20 апреля, вт
вт2023:00+7ююв11955 0.2 101110
02:00+7ююз11950 0.2 101110
05:00+6ю11950 0.0 101111
08:00+9ююз268324 0.0 1012229
11:00+16зюз6105410 0.0 10121432
14:00+16з6125398 0.0 10132123
17:00+15з5115596 0.0 10131716
20:00+9ссз25738 0.0 1015100
21 апреля, ср
ср2123:00+7в1175100 0.0 101512
02:00+8всв127283 0.0 101564
05:00+8в2674100 0.0 1012192
08:00+12ю4137778 0.1 1010817
11:00+17ююз7155687 0.1 10061905
14:00+16ю7166799 0.7 10021956
17:00+14ю81877100 0.6 9971565
20:00+3зсз5118545 5.9 1002780
22 апреля, чт
чт2223:000зсз6128162 0.0 1004996
02:00−1зсз5137896 0.0 10041228
05:000зсз51176100 0.0 10051296
08:00+2зсз614615 0.1 10071825
11:00+4зсз61248100 0.1 10072471
14:00+5зсз71451100 0.2 10072495
17:00+6зсз7155199 0.1 10092180
20:00+2зсз512605 0.1 10111254
23 апреля, пт
пт2323:00+2з5136336 0.0 10121385
02:00+1юз387397 0.0 1011276
05:00+1зюз5137093 0.0 1010792
08:00+4з5147270 0.0 10101269
11:00+8зсз6126287 0.3 10111863
14:00+10зсз711465 0.3 10121737
17:00+12з611535 0.0 10111671
20:00+8зсз514684 0.0 10131187